Location: Unspecified
(0.0000°N, 0.0000°E)
Time: 18:25:50
(UTC+00:00)

PRISMA (TANGO) - Visible Passes

Search period start: 18 May 2026 00:00
Search period end: 28 May 2026 00:00
Orbit: 714 x 771 km, 98.4° (Epoch: 18 May)

Date Brightness Start Highest point End Pass type
(mag) Time Alt. Az. Time Alt. Az. Time Alt. Az.
18 May ? 19:19:01 10° NNE 19:24:04 69° ESE 19:29:06 10° S visible
19 May ? 18:37:16 10° ENE 18:40:53 20° ESE 18:44:29 10° SSE visible
19 May ? 20:15:05 10° NNW 20:19:07 24° WNW 20:23:11 10° SW visible
20 May ? 19:30:52 10° N 19:35:57 85° WNW 19:41:00 10° SSW visible
21 May ? 18:48:30 10° NE 18:52:45 27° ESE 18:56:59 10° SSE visible
21 May ? 20:27:43 10° NW 20:30:59 17° WNW 20:34:15 10° WSW visible
22 May ? 19:42:50 10° N 19:47:49 60° WNW 19:52:47 10° SSW visible
23 May ? 18:59:57 10° NE 19:04:38 38° ESE 19:09:16 10° S visible
23 May ? 20:40:57 10° NW 20:42:50 12° WNW 20:44:45 10° W visible
24 May ? 18:20:20 10° E 18:21:27 11° ESE 18:22:33 10° ESE visible
24 May ? 19:54:56 10° N 19:59:41 42° WNW 20:04:25 10° SSW visible
25 May ? 19:11:34 10° NNE 19:16:30 54° ESE 19:21:22 10° S visible
26 May ? 18:30:23 10° ENE 18:33:18 16° ESE 18:36:13 10° SE visible
26 May ? 20:07:11 10° NNW 20:11:33 30° WNW 20:15:54 10° SW visible
27 May ? 19:23:19 10° NNE 19:28:22 77° ESE 19:33:21 10° S visible
